| time (UTC) | temp F | wind direction | speed MPH | gust MPH | rain 1hr in | rain 24hr in | rain mn in | humidity % | barometer mb |
| 20260507132605 | 55 | 176 | 2.0 | 9.0 | 0.00 | 0.30 | 0.20 | 77 | 1009.7 |
| 20260507130357 | 53 | 124 | 1.0 | 7.0 | 0.00 | 0.30 | 0.20 | 85 | 1009.7 |
| 20260507125345 | 52 | 203 | 0.0 | 3.0 | 0.00 | 0.30 | 0.20 | 91 | 1009.9 |
| 20260507123148 | 51 | 186 | 0.0 | 1.0 | 0.00 | 0.30 | 0.20 | 92 | 1009.8 |
| 20260507122124 | 50 | 154 | 0.0 | 2.0 | 0.00 | 0.30 | 0.20 | 93 | 1009.9 |
| 20260507121125 | 50 | 177 | 0.0 | 1.0 | 0.00 | 0.30 | 0.20 | 94 | 1009.8 |
| 20260507115111 | 50 | 165 | 0.0 | 3.0 | 0.00 | 0.30 | 0.20 | 95 | 1009.7 |
| 20260507114111 | 50 | 212 | 0.0 | 1.0 | 0.00 | 0.30 | 0.20 | 96 | 1009.4 |
| 20260507113102 | 51 | 153 | 0.0 | 3.0 | 0.00 | 0.30 | 0.20 | 97 | 1009.3 |
| 20260507112124 | 51 | 147 | 0.0 | 0.0 | 0.00 | 0.30 | 0.20 | 97 | 1009.3 |
| 20260507105943 | 50 | 146 | 0.0 | 0.0 | 0.00 | 0.30 | 0.20 | 97 | 1009.2 |
| 20260507104911 | 50 | 148 | 0.0 | 0.0 | 0.00 | 0.30 | 0.20 | 97 | 1008.9 |
| 20260507085853 | 51 | 184 | 0.0 | 0.0 | 0.05 | 0.30 | 0.20 | 100 | 1007.8 |
| 20260507083755 | 51 | 205 | 0.0 | 0.0 | 0.05 | 0.30 | 0.19 | 96 | 1008.1 |
| 20260507081625 | 51 | 165 | 0.0 | 3.0 | 0.00 | 0.27 | 0.17 | 96 | 1007.9 |
| 20260507080557 | 51 | 165 | 0.0 | 0.0 | 0.06 | 0.27 | 0.17 | 96 | 1007.9 |
| 20260507075612 | 51 | 156 | 0.0 | 0.0 | 0.09 | 0.27 | 0.16 | 96 | 1008.0 |
| 20260507074604 | 51 | 153 | 0.0 | 0.0 | 0.09 | 0.24 | 0.15 | 96 | 1008.2 |
| 20260507073539 | 51 | 179 | 0.0 | 0.0 | 0.05 | 0.23 | 0.13 | 95 | 1008.0 |
| 20260507071410 | 52 | 162 | 0.0 | 2.0 | 0.06 | 0.21 | 0.10 | 95 | 1008.1 |
| 20260507070340 | 52 | 115 | 0.0 | 0.0 | 0.06 | 0.20 | 0.10 | 95 | 1008.2 |
| 20260507065335 | 52 | 115 | 0.0 | 0.0 | 0.05 | 0.19 | 0.09 | 95 | 1007.7 |
| 20260507064348 | 53 | 160 | 0.0 | 0.0 | 0.13 | 0.18 | 0.08 | 95 | 1007.8 |
| 20260507063335 | 53 | 160 | 0.0 | 0.0 | 0.04 | 0.16 | 0.06 | 94 | 1007.6 |
| 20260507062323 | 53 | 161 | 0.0 | 0.0 | 0.09 | 0.16 | 0.06 | 93 | 1007.8 |
| 20260507061251 | 53 | 153 | 0.0 | 1.0 | 0.33 | 0.15 | 0.05 | 93 | 1007.5 |
| 20260507060220 | 54 | 158 | 0.0 | 0.0 | 0.05 | 0.12 | 0.02 | 91 | 1007.5 |
| 20260507055227 | 54 | 158 | 0.0 | 0.0 | 0.15 | 0.12 | 0.02 | 90 | 1007.1 |
| 20260507054221 | 54 | 205 | 0.0 | 2.0 | 0.00 | 0.10 | 0.00 | 89 | 1007.0 |
| 20260507052103 | 55 | 134 | 0.0 | 4.0 | 0.00 | 0.10 | 0.00 | 89 | 1007.3 |
| 20260507051029 | 55 | 172 | 0.0 | 3.0 | 0.00 | 0.10 | 0.00 | 93 | 1007.3 |
| 20260507050016 | 56 | 190 | 0.0 | 0.0 | 0.00 | 0.10 | 0.00 | 94 | 1007.4 |
| 20260507045019 | 56 | 190 | 0.0 | 1.0 | 0.00 | 0.10 | 0.00 | 94 | 1007.4 |
| 20260507044002 | 57 | 158 | 0.0 | 0.0 | 0.00 | 0.10 | 0.00 | 95 | 1007.3 |
| 20260507043012 | 58 | 158 | 0.0 | 3.0 | 0.00 | 0.10 | 0.00 | 96 | 1007.6 |
| 20260507041944 | 58 | 186 | 0.0 | 0.0 | 0.00 | 0.10 | 0.00 | 96 | 1007.5 |
| 20260507040941 | 58 | 191 | 0.0 | 2.0 | 0.00 | 0.10 | 0.00 | 97 | 1007.5 |
| 20260507035921 | 58 | 143 | 0.0 | 0.0 | 0.00 | 0.10 | 0.10 | 97 | 1007.3 |
| 20260507034905 | 58 | 143 | 0.0 | 0.0 | 0.00 | 0.10 | 0.10 | 97 | 1006.9 |
| 20260507033915 | 59 | 142 | 0.0 | 0.0 | 0.00 | 0.10 | 0.10 | 97 | 1007.1 |
| 20260507031731 | 59 | 170 | 0.0 | 0.0 | 0.00 | 0.10 | 0.10 | 97 | 1006.9 |
| 20260507030755 | 59 | 170 | 0.0 | 0.0 | 0.00 | 0.10 | 0.10 | 98 | 1007.2 |
| 20260507025818 | 59 | 170 | 0.0 | 0.0 | 0.00 | 0.10 | 0.10 | 98 | 1007.3 |
| 20260507024842 | 59 | 170 | 0.0 | 0.0 | 0.00 | 0.10 | 0.10 | 97 | 1007.3 |
| 20260507022719 | 59 | 170 | 0.0 | 0.0 | 0.00 | 0.10 | 0.10 | 97 | 1007.4 |
| 20260507021740 | 59 | 207 | 0.0 | 0.0 | 0.00 | 0.10 | 0.10 | 97 | 1007.4 |
| 20260507020713 | 59 | 161 | 0.0 | 0.0 | 0.04 | 0.09 | 0.10 | 97 | 1006.9 |
| 20260507015727 | 59 | 161 | 0.0 | 0.0 | 0.06 | 0.09 | 0.10 | 97 | 1007.1 |
| 20260507014732 | 59 | 160 | 0.0 | 0.0 | 0.00 | 0.09 | 0.09 | 97 | 1007.2 |
| 20260507013701 | 59 | 160 | 0.0 | 0.0 | 0.00 | 0.08 | 0.08 | 97 | 1007.1 |
| 20260507012647 | 59 | 161 | 0.0 | 0.0 | 0.00 | 0.08 | 0.08 | 97 | 1007.1 |
| 20260507011624 | 59 | 160 | 0.0 | 0.0 | 0.00 | 0.08 | 0.08 | 97 | 1007.0 |
| 20260507010643 | 59 | 160 | 0.0 | 0.0 | 0.00 | 0.08 | 0.08 | 97 | 1007.0 |
| 20260507005706 | 59 | 161 | 0.0 | 0.0 | 0.00 | 0.08 | 0.08 | 97 | 1006.9 |
| 20260507004706 | 59 | 160 | 0.0 | 0.0 | 0.00 | 0.08 | 0.08 | 97 | 1006.8 |
| 20260507002547 | 60 | 160 | 0.0 | 0.0 | 0.00 | 0.08 | 0.08 | 97 | 1006.8 |
| 20260507001521 | 60 | 160 | 0.0 | 0.0 | 0.00 | 0.08 | 0.08 | 96 | 1006.6 |
| 20260507000542 | 60 | 160 | 0.0 | 0.0 | 0.00 | 0.08 | 0.08 | 96 | 1006.6 |
| 20260506235600 | 60 | 161 | 0.0 | 0.0 | 0.00 | 0.08 | 0.08 | 96 | 1006.4 |
| 20260506234530 | 60 | 160 | 0.0 | 0.0 | 0.00 | 0.08 | 0.08 | 96 | 1006.5 |
| 20260506233546 | 60 | 160 | 0.0 | 0.0 | 0.00 | 0.08 | 0.08 | 97 | 1006.6 |
| 20260506232548 | 60 | 161 | 0.0 | 0.0 | 0.00 | 0.08 | 0.08 | 97 | 1006.7 |
| 20260506230459 | 60 | 162 | 0.0 | 0.0 | 0.00 | 0.08 | 0.08 | 97 | 1006.4 |
| 20260506225508 | 60 | 162 | 0.0 | 1.0 | 0.00 | 0.08 | 0.08 | 97 | 1006.4 |
| 20260506224454 | 60 | 170 | 0.0 | 0.0 | 0.00 | 0.08 | 0.08 | 97 | 1006.3 |
| 20260506223510 | 60 | 169 | 0.0 | 0.0 | 0.00 | 0.08 | 0.08 | 97 | 1006.3 |
| 20260506222525 | 60 | 103 | 0.0 | 0.0 | 0.00 | 0.08 | 0.08 | 97 | 1006.2 |
| 20260506221457 | 60 | 103 | 0.0 | 0.0 | 0.00 | 0.08 | 0.08 | 97 | 1006.2 |
| 20260506220507 | 60 | 103 | 0.0 | 0.0 | 0.00 | 0.08 | 0.08 | 97 | 1006.1 |
| 20260506215448 | 60 | 103 | 0.0 | 0.0 | 0.00 | 0.08 | 0.08 | 97 | 1005.9 |
| 20260506214432 | 59 | 103 | 0.0 | 0.0 | 0.00 | 0.08 | 0.08 | 96 | 1006.0 |
| 20260506213410 | 60 | 101 | 0.0 | 1.0 | 0.00 | 0.08 | 0.08 | 96 | 1006.0 |
| 20260506212353 | 60 | 103 | 0.0 | 1.0 | 0.00 | 0.08 | 0.08 | 96 | 1006.0 |
| 20260506211323 | 60 | 158 | 0.0 | 0.0 | 0.00 | 0.08 | 0.08 | 96 | 1005.8 |
| 20260506210337 | 60 | 158 | 0.0 | 0.0 | 0.00 | 0.08 | 0.08 | 96 | 1005.7 |
| 20260506204246 | 60 | 68 | 0.0 | 0.0 | 0.00 | 0.08 | 0.08 | 96 | 1005.9 |
| 20260506202102 | 60 | 113 | 0.0 | 0.0 | 0.00 | 0.08 | 0.08 | 95 | 1006.1 |
| 20260506201040 | 60 | 113 | 0.0 | 0.0 | 0.00 | 0.06 | 0.06 | 95 | 1006.2 |
| 20260506200015 | 60 | 68 | 0.0 | 2.0 | 0.00 | 0.06 | 0.06 | 94 | 1006.4 |
| 20260506195033 | 60 | 96 | 0.0 | 1.0 | 0.00 | 0.06 | 0.06 | 94 | 1006.6 |
| 20260506194046 | 61 | 103 | 0.0 | 0.0 | 0.00 | 0.06 | 0.06 | 94 | 1006.6 |
| 20260506192016 | 61 | 103 | 0.0 | 0.0 | 0.00 | 0.06 | 0.06 | 94 | 1006.6 |
| 20260506190945 | 61 | 103 | 0.0 | 1.0 | 0.00 | 0.06 | 0.06 | 93 | 1006.6 |
| 20260506185949 | 61 | 78 | 0.0 | 0.0 | 0.00 | 0.06 | 0.06 | 93 | 1006.7 |
| 20260506184920 | 61 | 94 | 0.0 | 2.0 | 0.00 | 0.06 | 0.06 | 93 | 1006.8 |
| 20260506183855 | 61 | 77 | 0.0 | 1.0 | 0.00 | 0.06 | 0.06 | 94 | 1007.1 |
| 20260506182902 | 61 | 111 | 0.0 | 1.0 | 0.00 | 0.06 | 0.06 | 94 | 1007.2 |
| 20260506181830 | 60 | 91 | 0.0 | 2.0 | 0.04 | 0.06 | 0.06 | 94 | 1007.4 |
| 20260506180828 | 60 | 115 | 0.0 | 1.0 | 0.08 | 0.06 | 0.06 | 95 | 1007.5 |
| 20260506175755 | 59 | 80 | 0.0 | 5.0 | 0.00 | 0.04 | 0.05 | 94 | 1007.4 |
| 20260506174725 | 59 | 70 | 0.0 | 2.0 | 0.00 | 0.04 | 0.04 | 93 | 1007.3 |
| 20260506173728 | 60 | 72 | 0.0 | 1.0 | 0.00 | 0.04 | 0.04 | 93 | 1007.4 |
| 20260506172728 | 60 | 93 | 0.0 | 2.0 | 0.04 | 0.03 | 0.03 | 92 | 1007.6 |
| 20260506171743 | 60 | 94 | 0.0 | 0.0 | 0.06 | 0.03 | 0.03 | 91 | 1007.4 |
| 20260506170724 | 61 | 95 | 0.0 | 0.0 | 0.10 | 0.02 | 0.02 | 89 | 1007.8 |
| 20260506165653 | 62 | 127 | 0.0 | 2.0 | 0.00 | 0.00 | 0.00 | 87 | 1008.1 |
| 20260506164625 | 63 | 77 | 0.0 | 0.0 | 0.00 | 0.00 | 0.00 | 85 | 1008.5 |
| 20260506163643 | 63 | 105 | 0.0 | 3.0 | 0.00 | 0.00 | 0.00 | 83 | 1008.6 |
| 20260506162619 | 64 | 70 | 0.0 | 1.0 | 0.00 | 0.00 | 0.00 | 83 | 1008.6 |
| 20260506161627 | 64 | 337 | 0.0 | 3.0 | 0.00 | 0.00 | 0.00 | 81 | 1008.5 |
| 20260506160615 | 65 | 63 | 0.0 | 4.0 | 0.00 | 0.00 | 0.00 | 81 | 1008.7 |
| 20260506154451 | 66 | 65 | 0.0 | 4.0 | 0.00 | 0.00 | 0.00 | 78 | 1008.8 |
| 20260506153443 | 66 | 74 | 1.0 | 4.0 | 0.00 | 0.00 | 0.00 | 79 | 1008.8 |
| 20260506150227 | 65 | 69 | 0.0 | 3.0 | 0.00 | 0.00 | 0.00 | 80 | 1008.8 |
| 20260506145158 | 65 | 70 | 0.0 | 3.0 | 0.00 | 0.00 | 0.00 | 81 | 1008.6 |
| 20260506144156 | 65 | 89 | 0.0 | 3.0 | 0.00 | 0.00 | 0.00 | 80 | 1008.6 |
| 20260506142055 | 65 | 70 | 0.0 | 3.0 | 0.00 | 0.00 | 0.00 | 81 | 1008.9 |
| 20260506141025 | 65 | 91 | 1.0 | 5.0 | 0.00 | 0.00 | 0.00 | 79 | 1009.1 |
| 20260506140015 | 66 | 84 | 2.0 | 5.0 | 0.00 | 0.00 | 0.00 | 79 | 1009.0 |
| 20260506135035 | 65 | 70 | 1.0 | 4.0 | 0.00 | 0.00 | 0.00 | 80 | 1008.9 |
| 20260506134003 | 64 | 78 | 0.0 | 4.0 | 0.00 | 0.00 | 0.00 | 82 | 1009.1 |
| 20260506133019 | 64 | 72 | 0.0 | 3.0 | 0.00 | 0.00 | 0.00 | 82 | 1009.1 |